Location: Lane
(33.5226°N, 79.8788°W)
Time: 11:22:45
(UTC+00:00)

Explorer 7 - Pass Details

Date: 10 October 2022
Orbit: 481 x 665 km, 50.3° (Epoch: 26 November)

Event Time Altitude Azimuth Distance (km) Brightness Sun altitude
Rises 19:55:31 0° 310° (NW) 2,958 10.7 33.1°
Reaches altitude 10° 19:57:55 10° 308° (NW) 2,024 10.0 32.7°
Maximum altitude 20:02:34 75° 224° (SW) 637 8.0 31.9°
Drops below altitude 10° 20:06:56 10° 139° (SE) 1,906 9.6 31.2°
Sets 20:09:08 0° 137° (SE) 2,770 10.3 30.8°
